星链-6281 (STARLINK-6281 )

导读

STARLINK-6281是美国SpaceX公司星链星座的第二代Mini卫星,于2023年5月4日由猎鹰9号火箭发射升空,运行在近地轨道。星链计划旨在构建全球卫星互联网,该星配备相控阵天线与氪离子推进器,支持高速低延迟通信,为全球偏远地区提供互联网接入服务,目前处于在轨服役状态。

基本信息
目录编号:
56410
目录名称:
STARLINK-6281
国际标识:
2023-061AN
轨道中心:
EARTH
卫星名称:
星链-6281
卫星全名:
星链-6281 (STARLINK-6281 )
卫星状态:
在轨 (已飞行1137 天)
发射日期:
2023-05-04 UTC
国别 :
美国 (US)
星等 :
--
轨道信息
数据来源 国际轨道数据 AOE轨道数据
星历时间 2026-06-14T13:29:15+0800
15小时前
查看轨道信息
2026-06-12T17:00:00+0800
2天前
查看轨道信息
半长轴 6861.199km 6861.195km
偏心率 0.0001108 0.0001201
轨道倾角 43.005° 43.002°
近地点辐角 268.295° 248.481°
升交点赤经 1.435° 11.902°
平近点角 91.777° 345.949°
近地点 482.301km 482.233km
远地点 483.823km 483.883km
周期 94.267分钟 94.267分钟
每日圈数 15.275759 15.275771
详细信息
固有亮度:
5
最大亮度:
2.5
卫星平台:
Starlink v1.5
覆盖范围:
全球
运营商:
太空探索技术公司
运营商所在国:
美国
制造商(研发单位):
太空探索技术公司
制造商所在国:
美国
使用方式:
暂无
卫星简介
星链(Starlink)计划是由太空探索技术公司(SpaceX)提出的一个巨型低轨卫星互联网星座项目,计划在2019年至2024年间在太空搭建由约1.2万颗卫星组成的“星链”网络,其中1584颗将部署在地球上空550千米处的近地轨道,并从2020年开始工作。该卫星仍在工作。
2D轨道图
3D轨道图
轨道高度分析图
轨道倾角分析图
轨道综合分析图
查看轨道综合分析图